sat.trackr.live / text

‹ back to catalog

COSMOS 2385

NORAD 27056 · 2001-058B

PAYLOAD ACTIVE UNKNOWN

§ Identity

Operator
Country
CIS
Launch date
2001-12-28
Launch site
PLMSC
Launch vehicle
Mass (kg)
RCS (m²)
0.84

External: N2YO · Heavens-Above · Gunter

§ Orbital elements

Epoch: 2026-09-19T23:31:27.355872Z

Period
114.23 min
Inclination
82.5404°
Eccentricity
0.0007077
Mean motion
12.60566649 rev/d
Perigee alt
1,415.1 km
Apogee alt
1,426.1 km
Semi-major
7,798.7 km
B*
9.4357e-5
RAAN
159.2490°
Arg perigee
27.1676°
Mean anomaly
35.0607°
Rev number
13,772

§ Raw data

COSMOS 23851 27056U 01058B   26262.98017773  .00000027  00000+0  94357-4 0  99942 27056  82.5404 159.2490 0007077  27.1676  35.0607 12.60566649137721

JSON: /api/v1/satellites/27056 · /tle

For live sub-satellite position, see the globe view (requires WebGL).

§ Visibility from observer

Set your observer location to see the next 7 days of passes ≥ 10°. The values pass through the URL so the page stays shareable.

No JS? Fill the form by hand. The geolocation button needs JavaScript.